CW0146 Weather Reports


Display with metric or nautical units.
time (UTC)temp
F
wind
direction
speed
MPH
gust
MPH
rain 1hr
in
rain 24hr
in
rain mn
in
humidity
%
barometer
mb
20260903083954 81 169 3.0 5.0 0.00 0.00 0.00 83 1013.0
20260903083455 81 185 2.0 5.0 0.00 0.00 0.00 83 1013.0
20260903082954 81 177 3.0 5.0 0.00 0.00 0.00 83 1013.0
20260903082454 81 183 2.0 4.0 0.00 0.00 0.00 83 1013.0
20260903081955 81 172 3.0 7.0 0.00 0.00 0.00 83 1013.0
20260903081454 81 183 3.0 5.0 0.00 0.00 0.00 83 1013.0
20260903080954 81 175 3.0 6.0 0.00 0.00 0.00 83 1013.0
20260903080454 81 189 3.0 7.0 0.00 0.00 0.00 82 1013.0
20260903075954 81 169 2.0 3.0 0.00 0.00 0.00 82 1013.0
20260903075456 81 186 3.0 6.0 0.00 0.00 0.00 82 1013.0
20260903074956 81 160 3.0 6.0 0.00 0.00 0.00 81 1013.0
20260903074455 81 173 3.0 8.0 0.00 0.00 0.00 81 1013.0
20260903073954 81 197 2.0 3.0 0.00 0.00 0.00 81 1013.0
20260903073455 81 182 2.0 6.0 0.00 0.00 0.00 80 1013.0
20260903072955 81 185 3.0 6.0 0.00 0.00 0.00 80 1013.0
20260903072455 81 171 1.0 3.0 0.00 0.00 0.00 80 1014.0
20260903071956 81 144 2.0 4.0 0.00 0.00 0.00 80 1014.0
20260903071455 81 182 2.0 5.0 0.00 0.00 0.00 80 1014.0
20260903070954 81 188 2.0 4.0 0.00 0.00 0.00 79 1014.0
20260903070454 81 159 1.0 5.0 0.00 0.00 0.00 79 1014.0
20260903065954 81 190 1.0 3.0 0.00 0.00 0.00 79 1014.0
20260903065455 81 122 1.0 2.0 0.00 0.00 0.00 79 1014.0
20260903064954 81 129 0.0 1.0 0.00 0.00 0.00 79 1014.0
20260903064456 81 182 1.0 3.0 0.00 0.00 0.00 79 1014.0
20260903063955 81 152 1.0 3.0 0.00 0.00 0.00 79 1014.0
20260903063456 81 172 0.0 1.0 0.00 0.00 0.00 79 1014.0
20260903062955 81 175 0.0 2.0 0.00 0.00 0.00 79 1014.0
20260903062454 81 147 2.0 4.0 0.00 0.00 0.00 79 1014.0
20260903061954 81 176 1.0 2.0 0.00 0.00 0.00 79 1014.0
20260903061456 81 185 1.0 3.0 0.00 0.00 0.00 79 1014.0
20260903060955 81 139 1.0 1.0 0.00 0.00 0.00 79 1014.0
20260903060454 81 156 1.0 2.0 0.00 0.00 0.00 79 1014.0
20260903055954 81 173 1.0 4.0 0.00 0.00 0.00 79 1014.0
20260903055454 81 134 1.0 3.0 0.00 0.00 0.00 79 1014.0
20260903054955 81 120 1.0 2.0 0.00 0.00 0.00 79 1014.0
20260903054454 81 180 1.0 4.0 0.00 0.00 0.00 79 1014.0
20260903053955 80 107 2.0 5.0 0.00 0.00 0.00 79 1014.0
20260903053455 80 151 1.0 4.0 0.00 0.00 0.00 80 1014.0
20260903052956 80 132 1.0 2.0 0.00 0.00 0.00 80 1014.0
20260903052454 80 96 1.0 2.0 0.00 0.00 0.00 80 1014.0
20260903051954 80 118 1.0 2.0 0.00 0.00 0.00 80 1014.0
20260903051454 80 111 0.0 2.0 0.00 0.00 0.00 80 1014.0
20260903050954 80 166 1.0 2.0 0.00 0.00 0.00 80 1014.0
20260903050454 80 103 2.0 4.0 0.00 0.00 0.00 80 1014.0
20260903050001 80 154 1.0 4.0 0.00 0.00 0.08 80 1014.0
20260903045454 80 97 2.0 3.0 0.00 0.00 0.08 80 1014.0
20260903044955 80 215 0.0 2.0 0.00 0.00 0.08 80 1014.0
20260903044454 80 97 1.0 3.0 0.00 0.00 0.08 80 1014.0
20260903043957 80 85 1.0 2.0 0.00 0.00 0.08 80 1014.0
20260903043454 80 93 1.0 2.0 0.00 0.00 0.08 80 1014.0
20260903042955 80 146 0.0 2.0 0.00 0.00 0.08 79 1014.0
20260903042454 80 113 1.0 3.0 0.00 0.00 0.08 79 1014.0
20260903041954 81 89 1.0 2.0 0.00 0.00 0.08 78 1014.0
20260903041455 81 97 1.0 2.0 0.00 0.00 0.08 77 1014.0
20260903040954 81 137 0.0 1.0 0.00 0.00 0.08 76 1014.0
20260903040455 82 105 1.0 3.0 0.00 0.00 0.08 75 1014.0
20260903035955 82 83 1.0 2.0 0.00 0.00 0.08 74 1014.0
20260903035455 82 94 2.0 4.0 0.00 0.00 0.08 73 1014.0
20260903034955 82 90 2.0 5.0 0.00 0.00 0.08 72 1014.0
20260903034455 83 85 2.0 4.0 0.00 0.00 0.08 71 1014.0
20260903033954 83 90 2.0 5.0 0.00 0.00 0.08 69 1014.0
20260903033456 84 86 3.0 6.0 0.00 0.00 0.08 68 1014.0
20260903032954 84 81 3.0 6.0 0.00 0.00 0.08 67 1014.0
20260903032456 84 100 1.0 2.0 0.00 0.00 0.08 66 1014.0
20260903031954 85 88 3.0 6.0 0.00 0.00 0.08 66 1014.0
20260903031455 85 87 3.0 5.0 0.00 0.00 0.08 65 1013.0
20260903030954 86 96 2.0 6.0 0.00 0.00 0.08 63 1013.0
20260903030459 86 92 2.0 3.0 0.00 0.00 0.08 63 1013.0
20260903025955 86 86 2.0 6.0 0.00 0.00 0.08 62 1013.0
20260903025455 86 74 1.0 2.0 0.00 0.00 0.08 61 1013.0
20260903024954 87 98 1.0 2.0 0.00 0.00 0.08 58 1013.0
20260903024454 87 92 1.0 4.0 0.00 0.00 0.08 58 1013.0
20260903023954 87 82 0.0 1.0 0.00 0.00 0.08 58 1013.0
20260903023454 87 79 1.0 2.0 0.00 0.00 0.08 57 1012.0
20260903022954 87 72 1.0 2.0 0.00 0.00 0.08 57 1012.0
20260903022455 87 157 2.0 2.0 0.00 0.00 0.08 57 1012.0
20260903021954 87 95 1.0 2.0 0.00 0.00 0.08 57 1012.0
20260903021454 87 67 0.0 0.0 0.00 0.00 0.08 58 1012.0
20260903020954 87 106 0.0 1.0 0.00 0.00 0.08 59 1012.0
20260903020457 87 99 0.0 0.0 0.00 0.00 0.08 57 1012.0
20260903015956 88 145 0.0 2.0 0.00 0.00 0.08 57 1012.0
20260903015454 88 107 1.0 2.0 0.00 0.00 0.08 55 1012.0
20260903014954 88 112 1.0 2.0 0.00 0.00 0.08 56 1012.0
20260903014454 88 101 0.0 1.0 0.00 0.00 0.08 56 1012.0
20260903013956 88 88 0.0 1.0 0.00 0.00 0.08 56 1012.0
20260903013454 88 90 0.0 1.0 0.00 0.00 0.08 56 1011.0
20260903012954 89 96 1.0 2.0 0.00 0.00 0.08 55 1012.0
20260903012454 89 97 0.0 1.0 0.00 0.00 0.08 56 1012.0
20260903011955 89 109 0.0 1.0 0.00 0.00 0.08 56 1012.0
20260903011455 89 90 0.0 1.0 0.00 0.00 0.08 56 1012.0
20260903010954 89 96 0.0 2.0 0.00 0.00 0.08 55 1012.0
20260903010454 89 95 1.0 2.0 0.00 0.00 0.08 55 1012.0
20260903005957 89 109 0.0 2.0 0.00 0.00 0.08 55 1011.0
20260903005455 89 126 1.0 2.0 0.00 0.00 0.08 54 1011.0
20260903004954 89 103 0.0 1.0 0.00 0.00 0.08 53 1011.0
20260903004455 89 113 2.0 6.0 0.00 0.00 0.08 53 1012.0
20260903003954 89 95 1.0 2.0 0.00 0.00 0.08 54 1012.0
20260903003455 90 99 0.0 2.0 0.00 0.00 0.08 54 1012.0
20260903002954 89 133 1.0 2.0 0.00 0.00 0.08 53 1012.0
20260903002454 89 113 1.0 2.0 0.00 0.00 0.08 53 1012.0
20260903001954 89 140 2.0 3.0 0.00 0.00 0.08 53 1012.0
20260903001455 89 178 2.0 4.0 0.00 0.00 0.08 54 1012.0
20260903000954 89 165 1.0 3.0 0.00 0.00 0.08 55 1012.0
20260903000455 89 167 4.0 6.0 0.00 0.00 0.08 55 1012.0
20260902235954 90 180 3.0 6.0 0.00 0.00 0.08 56 1012.0
20260902235454 90 178 2.0 4.0 0.00 0.00 0.08 56 1012.0
20260902234956 91 176 3.0 6.0 0.00 0.00 0.08 54 1012.0
20260902234454 92 167 3.0 5.0 0.00 0.00 0.08 54 1012.0
20260902233954 92 223 1.0 2.0 0.00 0.00 0.08 59 1012.0
20260902233454 91 196 0.0 1.0 0.00 0.00 0.08 61 1011.0
20260902232954 89 177 0.0 1.0 0.00 0.00 0.08 70 1012.0
20260902232454 87 118 0.0 2.0 0.00 0.00 0.10 75 1011.0
20260902231954 86 121 0.0 0.0 0.00 0.00 0.10 77 1011.0
20260902231456 85 360 0.0 0.0 0.00 0.00 0.10 79 1011.0
20260902230956 83 313 0.0 0.0 0.00 0.00 0.12 76 1011.0
20260902230455 83 68 0.0 2.0 0.00 0.00 0.12 78 1011.0
20260902230012 84 305 0.0 1.0 0.00 0.00 0.12 75 1011.0
20260902225454 86 63 2.0 2.0 0.06 0.00 0.12 71 1011.0
20260902224954 89 58 1.0 1.0 0.61 0.00 0.09 65 1011.0
20260902224455 91 46 2.0 4.0 0.05 0.00 0.02 56 1011.0
20260902223954 95 58 2.0 4.0 0.37 0.00 0.02 52 1011.0
20260902223454 98 358 1.0 2.0 0.01 0.00 0.00 45 1011.0
20260902222955 98 19 1.0 1.0 0.00 0.00 0.00 38 1011.0
20260902222456 98 151 1.0 2.0 0.00 0.00 0.00 39 1011.0
20260902221954 98 127 2.0 3.0 0.00 0.00 0.00 38 1011.0
20260902221455 98 194 1.0 2.0 0.00 0.00 0.00 40 1011.0
20260902220954 99 185 2.0 5.0 0.00 0.00 0.00 39 1011.0
20260902220456 99 190 2.0 4.0 0.00 0.00 0.00 38 1011.0
20260902215954 100 220 2.0 5.0 0.00 0.00 0.00 37 1011.0
20260902215455 100 232 1.0 3.0 0.00 0.00 0.00 36 1011.0
20260902214954 101 185 2.0 4.0 0.00 0.00 0.00 36 1011.0
20260902214454 100 122 2.0 4.0 0.00 0.00 0.00 35 1011.0
20260902213955 101 154 2.0 2.0 0.00 0.00 0.00 36 1011.0
20260902213454 101 139 1.0 2.0 0.00 0.00 0.00 35 1011.0
20260902212954 101 157 2.0 2.0 0.00 0.00 0.00 36 1011.0
20260902212454 101 218 2.0 2.0 0.00 0.00 0.00 37 1011.0
20260902211954 101 199 3.0 6.0 0.00 0.00 0.00 35 1011.0
20260902211454 100 181 2.0 3.0 0.00 0.00 0.00 37 1011.0
20260902210954 100 207 2.0 3.0 0.00 0.00 0.00 37 1011.0
20260902210457 100 203 1.0 3.0 0.00 0.00 0.00 38 1011.0
20260902205958 99 239 1.0 3.0 0.00 0.00 0.00 37 1012.0
20260902205454 100 188 2.0 3.0 0.00 0.00 0.00 36 1012.0
20260902204954 101 196 2.0 3.0 0.00 0.00 0.00 36 1012.0
20260902204454 101 275 1.0 2.0 0.00 0.00 0.00 35 1012.0
20260902203955 102 203 2.0 3.0 0.00 0.00 0.00 35 1012.0
20260902203455 103 209 2.0 4.0 0.00 0.00 0.00 35 1012.0
20260902202954 103 307 1.0 3.0 0.00 0.00 0.00 35 1012.0
20260902202455 102 317 2.0 3.0 0.00 0.00 0.00 35 1012.0
20260902201955 102 326 2.0 3.0 0.00 0.00 0.00 34 1012.0
20260902201455 102 171 3.0 5.0 0.00 0.00 0.00 34 1012.0
20260902200954 101 193 3.0 4.0 0.00 0.00 0.00 38 1012.0
20260902200454 101 199 2.0 4.0 0.00 0.00 0.00 38 1012.0
20260902195954 101 135 3.0 6.0 0.00 0.00 0.00 37 1012.0
20260902195454 101 174 3.0 6.0 0.00 0.00 0.00 36 1012.0
20260902194954 101 157 1.0 2.0 0.00 0.00 0.00 37 1012.0
20260902194454 102 183 3.0 4.0 0.00 0.00 0.00 36 1013.0
20260902193956 102 137 2.0 4.0 0.00 0.00 0.00 36 1013.0
20260902193455 101 155 2.0 3.0 0.00 0.00 0.00 40 1013.0
20260902192954 101 109 2.0 2.0 0.00 0.00 0.00 38 1013.0
20260902192455 100 167 2.0 3.0 0.00 0.00 0.00 38 1013.0
20260902191954 100 183 3.0 4.0 0.00 0.00 0.00 38 1013.0
20260902191454 100 164 2.0 3.0 0.00 0.00 0.00 39 1013.0
20260902190954 99 204 3.0 5.0 0.00 0.00 0.00 38 1013.0
20260902190454 99 146 2.0 2.0 0.00 0.00 0.00 39 1013.0
20260902185954 99 177 2.0 5.0 0.00 0.00 0.00 40 1013.0
20260902185454 99 225 2.0 4.0 0.00 0.00 0.00 39 1013.0
20260902184955 98 172 2.0 4.0 0.00 0.00 0.00 40 1013.0
20260902184459 97 144 2.0 2.0 0.00 0.00 0.00 41 1014.0
20260902183954 96 103 1.0 1.0 0.00 0.00 0.00 43 1014.0
20260902183455 98 31 0.0 1.0 0.00 0.00 0.00 42 1014.0
20260902182955 99 290 2.0 4.0 0.00 0.00 0.00 39 1014.0
20260902182454 99 299 1.0 4.0 0.00 0.00 0.00 39 1014.0
20260902181955 98 289 2.0 5.0 0.00 0.00 0.00 40 1014.0
20260902181027 98 181 3.0 5.0 0.00 0.00 0.00 41 1014.0
20260902180455 98 177 2.0 4.0 0.00 0.00 0.00 41 1014.0
20260902175955 98 166 3.0 5.0 0.00 0.00 0.00 40 1014.0
20260902175454 98 238 2.0 3.0 0.00 0.00 0.00 41 1014.0
20260902174958 98 292 1.0 2.0 0.00 0.00 0.00 42 1015.0
20260902174455 97 216 2.0 3.0 0.00 0.00 0.00 42 1015.0
20260902173955 97 109 1.0 3.0 0.00 0.00 0.00 43 1015.0
20260902173455 96 203 4.0 6.0 0.00 0.00 0.00 43 1015.0
20260902172955 96 149 3.0 4.0 0.00 0.00 0.00 43 1015.0
20260902172455 96 173 4.0 8.0 0.00 0.00 0.00 42 1015.0
20260902171955 96 178 3.0 5.0 0.00 0.00 0.00 43 1015.0
20260902171455 96 225 2.0 4.0 0.00 0.00 0.00 44 1015.0
20260902170955 96 183 2.0 3.0 0.00 0.00 0.00 43 1015.0
20260902170455 96 179 3.0 5.0 0.00 0.00 0.00 43 1015.0
20260902165954 96 230 2.0 2.0 0.00 0.00 0.00 43 1015.0
20260902165454 95 178 5.0 7.0 0.00 0.00 0.00 43 1015.0
20260902164954 95 301 2.0 3.0 0.00 0.00 0.00 44 1015.0
20260902164454 95 177 2.0 5.0 0.00 0.00 0.00 45 1015.0
20260902163955 94 251 2.0 3.0 0.00 0.00 0.00 46 1016.0
20260902163454 94 298 1.0 4.0 0.00 0.00 0.00 45 1016.0
20260902162954 94 235 3.0 4.0 0.00 0.00 0.00 46 1016.0
20260902162454 94 173 3.0 7.0 0.00 0.00 0.00 45 1016.0
20260902161955 94 175 2.0 5.0 0.00 0.00 0.00 47 1016.0
20260902161455 93 220 2.0 4.0 0.00 0.00 0.00 46 1016.0
20260902160954 93 254 1.0 2.0 0.00 0.00 0.00 48 1016.0
20260902160454 92 237 2.0 4.0 0.00 0.00 0.00 50 1016.0
20260902155954 92 56 1.0 2.0 0.00 0.00 0.00 48 1016.0
20260902155454 91 221 2.0 2.0 0.00 0.00 0.00 50 1016.0
20260902154954 91 217 1.0 2.0 0.00 0.00 0.00 51 1016.0
20260902154454 90 205 2.0 4.0 0.00 0.00 0.00 53 1016.0
20260902153954 90 219 2.0 4.0 0.00 0.00 0.00 55 1016.0
20260902153454 89 217 1.0 3.0 0.00 0.00 0.00 55 1016.0
20260902152955 89 231 1.0 2.0 0.00 0.00 0.00 56 1016.0
20260902152455 89 227 2.0 3.0 0.00 0.00 0.00 57 1016.0
20260902151955 89 272 2.0 5.0 0.00 0.00 0.00 56 1016.0
20260902151455 88 200 1.0 2.0 0.00 0.00 0.00 58 1016.0
20260902150956 88 253 2.0 3.0 0.00 0.00 0.00 58 1016.0
20260902150454 88 237 2.0 4.0 0.00 0.00 0.00 58 1016.0
20260902145954 87 201 1.0 3.0 0.00 0.00 0.00 59 1016.0
20260902145455 87 253 2.0 6.0 0.00 0.00 0.00 59 1016.0
20260902144954 86 273 2.0 4.0 0.00 0.00 0.00 60 1016.0
20260902144456 86 121 0.0 2.0 0.00 0.00 0.00 62 1016.0
20260902143955 85 308 0.0 1.0 0.00 0.00 0.00 62 1016.0
20260902143455 85 166 1.0 2.0 0.00 0.00 0.00 64 1016.0
20260902142955 84 175 2.0 3.0 0.00 0.00 0.00 64 1016.0
20260902142458 84 173 2.0 3.0 0.00 0.00 0.00 63 1016.0
20260902141955 84 179 3.0 5.0 0.00 0.00 0.00 63 1016.0
20260902141455 84 154 3.0 4.0 0.00 0.00 0.00 63 1016.0
20260902140954 83 207 2.0 3.0 0.00 0.00 0.00 64 1016.0
20260902140455 83 189 1.0 2.0 0.00 0.00 0.00 66 1016.0
20260902135957 83 290 0.0 1.0 0.00 0.00 0.00 66 1016.0
20260902135456 82 261 2.0 4.0 0.00 0.00 0.00 67 1016.0
20260902134954 82 215 2.0 4.0 0.00 0.00 0.00 68 1016.0
20260902134454 82 270 2.0 3.0 0.00 0.00 0.00 68 1016.0
20260902133955 81 235 1.0 2.0 0.00 0.00 0.00 69 1016.0
20260902133455 81 214 0.0 1.0 0.00 0.00 0.00 70 1016.0
20260902132954 81 253 2.0 4.0 0.00 0.00 0.00 71 1016.0
20260902132454 80 192 0.0 1.0 0.00 0.00 0.00 72 1016.0
20260902131955 80 242 0.0 1.0 0.00 0.00 0.00 73 1016.0
20260902131455 79 282 0.0 0.0 0.00 0.00 0.00 74 1016.0
20260902130954 79 277 0.0 2.0 0.00 0.00 0.00 75 1016.0
20260902130456 78 227 0.0 1.0 0.00 0.00 0.00 76 1015.0
20260902125954 77 212 0.0 2.0 0.00 0.00 0.00 78 1015.0
20260902125455 77 309 0.0 1.0 0.00 0.00 0.00 80 1015.0
20260902124954 77 360 0.0 0.0 0.00 0.00 0.00 80 1015.0
20260902124454 76 182 0.0 1.0 0.00 0.00 0.00 81 1015.0
20260902123954 76 360 0.0 0.0 0.00 0.00 0.00 81 1015.0
20260902123454 76 360 0.0 0.0 0.00 0.00 0.00 81 1015.0
20260902122954 76 360 0.0 0.0 0.00 0.00 0.00 81 1015.0
20260902122456 76 360 0.0 0.0 0.00 0.00 0.00 81 1015.0
20260902121955 76 360 0.0 0.0 0.00 0.00 0.00 81 1015.0
20260902121455 77 360 0.0 0.0 0.00 0.00 0.00 80 1015.0
20260902120954 77 360 0.0 0.0 0.00 0.00 0.00 80 1015.0
20260902120454 77 360 0.0 0.0 0.00 0.00 0.00 80 1015.0
20260902115956 77 94 0.0 0.0 0.00 0.00 0.00 80 1015.0
20260902115454 77 63 0.0 1.0 0.00 0.00 0.00 79 1015.0
20260902114955 78 133 0.0 0.0 0.00 0.00 0.00 78 1015.0
20260902114454 78 360 0.0 0.0 0.00 0.00 0.00 77 1015.0
20260902113954 78 203 0.0 1.0 0.00 0.00 0.00 76 1015.0
20260902113454 79 360 0.0 0.0 0.00 0.00 0.00 76 1015.0
20260902112956 79 360 0.0 0.0 0.00 0.00 0.00 75 1015.0
20260902112455 79 117 0.0 3.0 0.00 0.00 0.00 75 1015.0
20260902111954 79 151 0.0 2.0 0.00 0.00 0.00 75 1015.0
20260902111455 79 154 2.0 3.0 0.00 0.00 0.00 75 1015.0
20260902110954 79 171 0.0 1.0 0.00 0.00 0.00 74 1015.0
20260902110455 80 219 1.0 2.0 0.00 0.00 0.00 74 1015.0
20260902105954 80 178 2.0 3.0 0.00 0.00 0.00 74 1015.0
20260902105454 80 162 2.0 4.0 0.00 0.00 0.00 74 1015.0
20260902104954 80 181 2.0 4.0 0.00 0.00 0.00 74 1015.0
20260902104455 80 167 2.0 3.0 0.00 0.00 0.00 74 1015.0
20260902103955 79 151 1.0 3.0 0.00 0.00 0.00 75 1015.0
20260902103454 79 193 1.0 2.0 0.00 0.00 0.00 76 1015.0
20260902102956 79 168 1.0 2.0 0.00 0.00 0.00 76 1015.0
20260902102454 79 211 1.0 2.0 0.00 0.00 0.00 76 1015.0
20260902101954 79 157 0.0 2.0 0.00 0.00 0.00 76 1015.0
20260902101455 79 126 0.0 0.0 0.00 0.00 0.00 77 1015.0
20260902100954 78 237 0.0 1.0 0.00 0.00 0.00 78 1015.0
20260902100455 78 216 1.0 2.0 0.00 0.00 0.00 79 1015.0
20260902095954 78 211 0.0 1.0 0.00 0.00 0.00 79 1015.0
20260902095454 78 183 0.0 1.0 0.00 0.00 0.00 79 1015.0
20260902094958 78 172 0.0 1.0 0.00 0.00 0.00 79 1015.0
20260902094454 78 360 0.0 0.0 0.00 0.00 0.00 79 1015.0
20260902094002 78 57 0.0 1.0 0.00 0.00 0.00 79 1015.0
20260902093454 79 360 0.0 0.0 0.00 0.00 0.00 79 1015.0
20260902092955 79 177 0.0 1.0 0.00 0.00 0.00 78 1015.0
20260902092455 79 302 0.0 1.0 0.00 0.00 0.00 78 1015.0
20260902091954 79 238 0.0 1.0 0.00 0.00 0.00 77 1015.0
20260902091455 79 360 0.0 0.0 0.00 0.00 0.00 77 1015.0
20260902090954 79 162 0.0 1.0 0.00 0.00 0.00 77 1015.0
20260902090454 79 327 0.0 1.0 0.00 0.00 0.00 76 1015.0
20260902085955 79 360 0.0 0.0 0.00 0.00 0.00 77 1015.0
20260902085454 79 360 0.0 0.0 0.00 0.00 0.00 76 1015.0
20260902084955 79 360 0.0 0.0 0.00 0.00 0.00 76 1015.0
20260902084454 79 360 0.0 0.0 0.00 0.00 0.00 76 1015.0